This is the latest recevied weather packets stored in our database for station/object KO6HRZ. If no packets are shown the sender has not sent any weather packets the latest 10 day(s).
| Time | Temp. | Humidity | Pressure | Rain* | Wind** | Luminosity | Snow |
|---|---|---|---|---|---|---|---|
| 1788076291 | 17.22° C | 69% | 1010.4 hPa | 0 mm | - | 0 W/m² | - |
| 1788075688 | 17.22° C | 70% | 1010.4 hPa | 0 mm | - | 0 W/m² | - |
| 1788075085 | 17.78° C | 68% | 1010.5 hPa | 0 mm | - | 0 W/m² | - |
| 1788074488 | 17.78° C | 67% | 1010.7 hPa | 0 mm | - | 0 W/m² | - |
| 1788073880 | 17.78° C | 66% | 1010.5 hPa | 0 mm | - | 0 W/m² | - |
| 1788073276 | 18.33° C | 66% | 1010.6 hPa | 0 mm | - | 0 W/m² | - |
| 1788072674 | 17.78° C | 67% | 1010.7 hPa | 0 mm | - | 0 W/m² | - |
| 1788072069 | 18.33° C | 66% | 1010.6 hPa | 0 mm | - | 0 W/m² | - |
| 1788071468 | 18.33° C | 66% | 1010.6 hPa | 0 mm | - | 0 W/m² | - |
| 1788070878 | 18.33° C | 66% | 1010.6 hPa | 0 mm | - | 0 W/m² | - |
| 1788070266 | 18.89° C | 65% | 1010.5 hPa | 0 mm | - | 0 W/m² | - |
| 1788069664 | 18.33° C | 66% | 1010.5 hPa | 0 mm | - | 0 W/m² | - |
| 1788069061 | 18.89° C | 65% | 1010.3 hPa | 0 mm | - | 0 W/m² | - |
| 1788068457 | 18.89° C | 64% | 1010.3 hPa | 0 mm | - | 0 W/m² | - |
| 1788067852 | 19.44° C | 63% | 1010.5 hPa | 0 mm | - | 0 W/m² | - |
| 1788067248 | 19.44° C | 63% | 1010.5 hPa | 0 mm | - | 0 W/m² | - |
| 1788066645 | 20° C | 62% | 1010.2 hPa | 0 mm | - | 0 W/m² | - |
| 1788066044 | 20° C | 62% | 1010.2 hPa | 0 mm | - | 0 W/m² | - |
| 1788065444 | 20° C | 61% | 1010.2 hPa | 0 mm | - | 0 W/m² | - |
| 1788064845 | 20.56° C | 60% | 1010.4 hPa | 0 mm | - | 0 W/m² | - |
| 1788064239 | 20.56° C | 60% | 1010.1 hPa | 0 mm | - | 0 W/m² | - |
| 1788063638 | 21.11° C | 59% | 1010.1 hPa | 0 mm | - | 0 W/m² | - |
| 1788063036 | 21.67° C | 58% | 1010 hPa | 0 mm | - | 0 W/m² | - |
| 1788062433 | 21.67° C | 56% | 1009.8 hPa | 0 mm | - | 0 W/m² | - |
| 1788061833 | 22.22° C | 55% | 1009.7 hPa | 0 mm | - | 0 W/m² | - |
* Rain latest hour (hover to see other rain measurements)
** Current wind speed in m/s (hover to see current wind gust speed)